Time,TemperatureF,DewpointF,PressureIn,WindDirection,WindDirectionDegrees,WindSpeedMPH,WindSpeedGustMPH,Humidity,HourlyPrecipIn,Conditions,Clouds,dailyrainin,SoftwareType,DateUTC
2013-04-11 00:03:00,42.4,40.5,29.84,NW,319,5.0,17.0,93,0.00,,---,1.79,VWS V13.01,2013-04-11 05:03:00,
2013-04-11 00:08:00,42.3,40.4,29.84,NNW,345,0.0,12.0,93,0.00,,---,0.00,VWS V13.01,2013-04-11 05:08:00,
2013-04-11 00:13:00,42.2,40.3,29.85,NW,325,0.0,16.0,93,0.00,,---,0.00,VWS V13.01,2013-04-11 05:13:00,
2013-04-11 00:18:00,42.1,40.2,29.85,NNE,25,4.0,16.0,93,0.00,,---,0.00,VWS V13.01,2013-04-11 05:18:00,
2013-04-11 00:23:00,42.0,40.1,29.85,SW,217,0.0,16.0,93,0.00,,---,0.00,VWS V13.01,2013-04-11 05:23:00,
2013-04-11 00:28:00,42.0,40.1,29.85,NNE,17,0.0,16.0,93,0.00,,---,0.00,VWS V13.01,2013-04-11 05:28:00,
2013-04-11 00:33:00,41.9,40.0,29.84,North,360,1.0,16.0,93,0.00,,---,0.00,VWS V13.01,2013-04-11 05:33:00,
2013-04-11 00:38:00,41.9,40.0,29.84,NNW,327,3.0,11.0,93,0.00,,---,0.00,VWS V13.01,2013-04-11 05:38:00,
2013-04-11 00:43:00,41.9,40.0,29.84,WNW,298,1.0,11.0,93,0.00,,---,0.00,VWS V13.01,2013-04-11 05:43:00,
2013-04-11 00:48:00,41.9,40.0,29.84,North,349,0.0,11.0,93,0.00,,---,0.00,VWS V13.01,2013-04-11 05:48:00,
2013-04-11 00:53:00,41.8,39.9,29.84,NW,315,0.0,11.0,93,0.00,,---,0.00,VWS V13.01,2013-04-11 05:53:00,
2013-04-11 00:58:00,41.8,39.9,29.84,NW,323,0.0,14.0,93,0.00,,---,0.00,VWS V13.01,2013-04-11 05:58:00,
2013-04-11 01:04:00,41.8,39.9,29.83,NW,315,1.0,14.0,93,0.00,,---,0.00,VWS V13.01,2013-04-11 06:04:00,
2013-04-11 01:09:00,41.7,39.8,29.83,WNW,283,5.0,9.0,93,0.00,,---,0.00,VWS V13.01,2013-04-11 06:09:00,
2013-04-11 01:14:00,41.7,39.8,29.84,East,82,0.0,12.0,93,0.00,,---,0.00,VWS V13.01,2013-04-11 06:14:00,
2013-04-11 01:19:00,41.7,39.8,29.83,North,360,4.0,16.0,93,0.00,,---,0.00,VWS V13.01,2013-04-11 06:19:00,
2013-04-11 01:24:00,41.8,39.9,29.83,WSW,254,0.0,16.0,93,0.00,,---,0.00,VWS V13.01,2013-04-11 06:24:00,
2013-04-11 01:29:00,41.8,39.9,29.84,NNE,14,0.0,16.0,93,0.00,,---,0.00,VWS V13.01,2013-04-11 06:29:00,
2013-04-11 01:34:00,41.9,40.0,29.84,NW,321,10.0,16.0,93,0.00,,---,0.00,VWS V13.01,2013-04-11 06:34:00,
2013-04-11 01:39:00,41.9,40.0,29.84,West,263,2.0,17.0,93,0.00,,---,0.00,VWS V13.01,2013-04-11 06:39:00,
2013-04-11 01:44:00,42.0,40.1,29.84,NW,308,0.0,17.0,93,0.00,,---,0.00,VWS V13.01,2013-04-11 06:44:00,
2013-04-11 01:49:00,42.0,40.1,29.85,SSW,207,1.0,17.0,93,0.00,,---,0.00,VWS V13.01,2013-04-11 06:49:00,
2013-04-11 01:54:00,42.0,40.1,29.85,West,269,0.0,17.0,93,0.00,,---,0.00,VWS V13.01,2013-04-11 06:54:00,
2013-04-11 01:59:00,42.0,40.1,29.86,WSW,250,5.0,17.0,93,0.00,,---,0.00,VWS V13.01,2013-04-11 06:59:00,
2013-04-11 02:04:00,41.9,40.0,29.86,NW,307,4.0,17.0,93,0.00,,---,0.00,VWS V13.01,2013-04-11 07:04:00,
2013-04-11 02:09:00,41.8,39.9,29.86,West,260,5.0,9.0,93,0.00,,---,0.00,VWS V13.01,2013-04-11 07:09:00,
2013-04-11 02:14:00,41.8,39.9,29.86,WSW,246,0.0,11.0,93,0.00,,---,0.00,VWS V13.01,2013-04-11 07:14:00,
2013-04-11 02:19:00,41.7,39.8,29.85,West,281,3.0,11.0,93,0.00,,---,0.00,VWS V13.01,2013-04-11 07:19:00,
2013-04-11 02:24:00,41.7,39.8,29.85,West,274,5.0,17.0,93,0.00,,---,0.00,VWS V13.01,2013-04-11 07:24:00,
2013-04-11 02:29:00,41.7,39.8,29.85,West,277,4.0,17.0,93,0.00,,---,0.00,VWS V13.01,2013-04-11 07:29:00,
2013-04-11 02:35:00,41.7,39.8,29.85,WNW,294,0.0,17.0,93,0.00,,---,0.00,VWS V13.01,2013-04-11 07:35:00,
2013-04-11 02:40:00,41.7,39.8,29.85,NNW,327,1.0,6.0,93,0.00,,---,0.00,VWS V13.01,2013-04-11 07:40:00,
2013-04-11 02:45:00,41.7,39.8,29.84,NW,312,6.0,21.0,93,0.00,,---,0.00,VWS V13.01,2013-04-11 07:45:00,
2013-04-11 02:50:00,41.6,39.7,29.84,West,265,0.0,21.0,93,0.00,,---,0.00,VWS V13.01,2013-04-11 07:50:00,
2013-04-11 02:55:00,41.5,39.6,29.84,West,259,0.0,21.0,93,0.00,,---,0.00,VWS V13.01,2013-04-11 07:55:00,
2013-04-11 03:00:00,41.5,39.6,29.83,NW,311,1.0,21.0,93,0.00,,---,0.00,VWS V13.01,2013-04-11 08:00:00,
2013-04-11 03:05:00,41.5,39.6,29.83,NW,311,0.0,21.0,93,0.00,,---,0.00,VWS V13.01,2013-04-11 08:05:00,
2013-04-11 03:10:00,41.5,39.6,29.83,NW,309,0.0,12.0,93,0.00,,---,0.00,VWS V13.01,2013-04-11 08:10:00,
2013-04-11 03:15:00,41.4,39.5,29.82,West,271,2.0,12.0,93,0.00,,---,0.00,VWS V13.01,2013-04-11 08:15:00,
2013-04-11 03:20:00,41.4,39.5,29.83,WNW,283,0.0,14.0,93,0.00,,---,0.00,VWS V13.01,2013-04-11 08:20:00,
2013-04-11 03:25:00,41.3,39.4,29.83,NNW,345,3.0,15.0,93,0.00,,---,0.00,VWS V13.01,2013-04-11 08:25:00,
2013-04-11 03:30:00,41.2,39.3,29.82,NW,316,3.0,16.0,93,0.00,,---,0.00,VWS V13.01,2013-04-11 08:30:00,
2013-04-11 03:35:00,41.1,39.2,29.82,NW,321,5.0,18.0,93,0.00,,---,0.00,VWS V13.01,2013-04-11 08:35:00,
2013-04-11 03:40:00,41.0,40.5,29.82,NW,318,2.0,15.0,98,0.00,,---,0.00,VWS V13.01,2013-04-11 08:40:00,
2013-04-11 03:45:00,41.0,39.1,29.83,NNW,342,3.0,15.0,93,0.00,,---,0.00,VWS V13.01,2013-04-11 08:45:00,
2013-04-11 03:50:00,40.9,39.0,29.82,NW,320,0.0,15.0,93,0.00,,---,0.00,VWS V13.01,2013-04-11 08:50:00,
2013-04-11 03:55:00,40.9,39.0,29.81,NW,322,5.0,15.0,93,0.00,,---,0.00,VWS V13.01,2013-04-11 08:55:00,
2013-04-11 04:00:00,40.8,38.7,29.79,NW,318,3.0,15.0,92,0.00,,---,0.00,VWS V13.01,2013-04-11 09:00:00,
2013-04-11 04:05:00,40.7,38.6,29.79,NNW,341,3.0,15.0,92,0.00,,---,0.00,VWS V13.01,2013-04-11 09:05:00,
2013-04-11 04:10:00,40.6,38.5,29.80,WSW,250,3.0,17.0,92,0.00,,---,0.00,VWS V13.01,2013-04-11 09:10:00,
2013-04-11 04:15:00,40.6,38.5,29.81,NW,319,4.0,17.0,92,0.00,,---,0.00,VWS V13.01,2013-04-11 09:15:00,
2013-04-11 04:20:00,40.5,38.4,29.81,WNW,300,3.0,17.0,92,0.00,,---,0.00,VWS V13.01,2013-04-11 09:20:00,
2013-04-11 04:25:00,40.4,38.3,29.81,NW,318,0.0,17.0,92,0.00,,---,0.00,VWS V13.01,2013-04-11 09:25:00,
2013-04-11 04:30:00,40.4,38.3,29.82,WNW,300,9.0,17.0,92,0.00,,---,0.00,VWS V13.01,2013-04-11 09:30:00,
2013-04-11 04:35:00,40.4,38.3,29.83,NW,313,5.0,17.0,92,0.00,,---,0.00,VWS V13.01,2013-04-11 09:35:00,
2013-04-11 04:40:00,40.4,38.3,29.83,NNE,15,3.0,16.0,92,0.00,,---,0.00,VWS V13.01,2013-04-11 09:40:00,
2013-04-11 04:45:00,40.4,38.3,29.85,WNW,299,7.0,16.0,92,0.00,,---,0.00,VWS V13.01,2013-04-11 09:45:00,
2013-04-11 04:50:00,40.3,38.2,29.86,SW,231,5.0,16.0,92,0.00,,---,0.00,VWS V13.01,2013-04-11 09:50:00,
2013-04-11 04:55:00,40.2,38.1,29.87,NW,310,4.0,16.0,92,0.00,,---,0.00,VWS V13.01,2013-04-11 09:55:00,
2013-04-11 05:00:00,40.0,37.9,29.88,West,263,7.0,16.0,92,0.00,,---,0.00,VWS V13.01,2013-04-11 10:00:00,
2013-04-11 05:05:00,40.0,37.9,29.86,West,271,2.0,16.0,92,0.00,,---,0.00,VWS V13.01,2013-04-11 10:05:00,
2013-04-11 05:10:00,39.8,37.4,29.85,NNW,344,3.0,18.0,91,0.00,,---,0.00,VWS V13.01,2013-04-11 10:10:00,
2013-04-11 05:15:00,39.7,37.3,29.85,NW,309,3.0,18.0,91,0.00,,---,0.00,VWS V13.01,2013-04-11 10:15:00,
2013-04-11 05:20:00,39.6,37.2,29.86,WNW,284,3.0,18.0,91,0.00,,---,0.00,VWS V13.01,2013-04-11 10:20:00,
2013-04-11 05:25:00,39.5,37.1,29.85,West,274,3.0,18.0,91,0.00,,---,0.00,VWS V13.01,2013-04-11 10:25:00,
2013-04-11 05:30:00,39.4,37.0,29.85,NW,309,4.0,18.0,91,0.00,,---,0.00,VWS V13.01,2013-04-11 10:30:00,
2013-04-11 05:36:00,39.3,36.9,29.85,NNW,334,19.0,20.0,91,0.00,,---,0.00,VWS V13.01,2013-04-11 10:36:00,
2013-04-11 05:41:00,39.2,36.8,29.85,SSW,207,4.0,10.0,91,0.00,,---,0.00,VWS V13.01,2013-04-11 10:41:00,
2013-04-11 05:46:00,39.1,36.7,29.85,NW,318,4.0,13.0,91,0.00,,---,0.00,VWS V13.01,2013-04-11 10:46:00,
2013-04-11 05:51:00,39.0,36.6,29.85,WNW,302,5.0,13.0,91,0.00,,---,0.00,VWS V13.01,2013-04-11 10:51:00,
2013-04-11 05:56:00,39.0,36.6,29.86,NW,307,2.0,13.0,91,0.00,,---,0.00,VWS V13.01,2013-04-11 10:56:00,
2013-04-11 06:01:00,39.0,36.6,29.86,WNW,287,3.0,13.0,91,0.00,,---,0.00,VWS V13.01,2013-04-11 11:01:00,
2013-04-11 06:06:00,39.1,36.7,29.86,WNW,294,1.0,1.0,91,0.00,,---,0.00,VWS V13.01,2013-04-11 11:06:00,
2013-04-11 06:11:00,39.1,36.7,29.86,WSW,254,6.0,15.0,91,0.00,,---,0.00,VWS V13.01,2013-04-11 11:11:00,
2013-04-11 06:17:00,39.0,36.3,29.85,NW,318,6.0,15.0,90,0.00,,---,0.00,VWS V13.01,2013-04-11 11:17:00,
2013-04-11 06:22:00,38.9,36.2,29.85,NW,325,4.0,15.0,90,0.00,,---,0.00,VWS V13.01,2013-04-11 11:22:00,
2013-04-11 06:27:00,38.8,36.1,29.84,West,274,0.0,18.0,90,0.00,,---,0.00,VWS V13.01,2013-04-11 11:27:00,
2013-04-11 06:32:00,38.6,35.9,29.83,West,281,9.0,18.0,90,0.00,,---,0.00,VWS V13.01,2013-04-11 11:32:00,
2013-04-11 06:37:00,38.6,35.9,29.83,NW,326,0.0,6.0,90,0.00,,---,0.00,VWS V13.01,2013-04-11 11:37:00,
2013-04-11 06:42:00,38.5,35.8,29.84,WNW,294,3.0,15.0,90,0.00,,---,0.00,VWS V13.01,2013-04-11 11:42:00,
2013-04-11 06:47:00,38.6,35.9,29.84,NNW,336,0.0,15.0,90,0.00,,---,0.00,VWS V13.01,2013-04-11 11:47:00,
2013-04-11 06:52:00,38.6,35.9,29.84,WNW,292,2.0,15.0,90,0.00,,---,0.00,VWS V13.01,2013-04-11 11:52:00,
2013-04-11 06:57:00,38.6,35.9,29.85,North,360,0.0,22.0,90,0.00,,---,0.00,VWS V13.01,2013-04-11 11:57:00,
2013-04-11 07:02:00,38.6,35.9,29.85,North,360,0.0,22.0,90,0.00,,---,0.00,VWS V13.01,2013-04-11 12:02:00,
2013-04-11 07:07:00,38.5,35.8,29.86,NW,306,4.0,9.0,90,0.00,,---,0.00,VWS V13.01,2013-04-11 12:07:00,
2013-04-11 07:12:00,38.4,35.5,29.86,NW,315,6.0,12.0,89,0.00,,---,0.00,VWS V13.01,2013-04-11 12:12:00,
2013-04-11 07:17:00,38.3,35.3,29.84,NW,318,3.0,14.0,89,0.00,,---,0.00,VWS V13.01,2013-04-11 12:17:00,
2013-04-11 07:22:00,38.2,35.2,29.83,WNW,298,2.0,14.0,89,0.00,,---,0.00,VWS V13.01,2013-04-11 12:22:00,
2013-04-11 07:28:00,38.2,35.2,29.83,NW,307,9.0,14.0,89,0.00,,---,0.00,VWS V13.01,2013-04-11 12:28:00,
2013-04-11 07:33:00,38.1,35.2,29.84,WNW,302,0.0,16.0,89,0.00,,---,0.00,VWS V13.01,2013-04-11 12:33:00,
2013-04-11 07:38:00,38.1,35.2,29.84,NNW,331,4.0,11.0,89,0.00,,---,0.00,VWS V13.01,2013-04-11 12:38:00,
2013-04-11 07:43:00,38.2,35.2,29.85,North,349,6.0,12.0,89,0.00,,---,0.00,VWS V13.01,2013-04-11 12:43:00,
2013-04-11 07:48:00,38.3,35.3,29.85,NW,307,5.0,12.0,89,0.00,,---,0.00,VWS V13.01,2013-04-11 12:48:00,
2013-04-11 07:53:00,38.2,35.0,29.83,NW,325,5.0,16.0,88,0.00,,---,0.00,VWS V13.01,2013-04-11 12:53:00,
2013-04-11 07:58:00,38.2,35.2,29.85,West,260,0.0,16.0,89,0.00,,---,0.00,VWS V13.01,2013-04-11 12:58:00,
2013-04-11 08:03:00,38.3,35.3,29.85,WNW,286,10.0,16.0,89,0.00,,---,0.00,VWS V13.01,2013-04-11 13:03:00,
2013-04-11 08:08:00,38.3,35.1,29.85,NW,306,6.0,15.0,88,0.00,,---,0.00,VWS V13.01,2013-04-11 13:08:00,
2013-04-11 08:13:00,38.3,35.1,29.87,NW,309,4.0,15.0,88,0.00,,---,0.00,VWS V13.01,2013-04-11 13:13:00,
2013-04-11 08:18:00,38.4,35.2,29.87,WSW,250,4.0,15.0,88,0.00,,---,0.00,VWS V13.01,2013-04-11 13:18:00,
2013-04-11 08:23:00,38.4,35.2,29.86,NNW,344,2.0,15.0,88,0.00,,---,0.00,VWS V13.01,2013-04-11 13:23:00,
2013-04-11 08:28:00,38.4,35.2,29.86,WNW,299,1.0,15.0,88,0.00,,---,0.00,VWS V13.01,2013-04-11 13:28:00,
2013-04-11 08:33:00,38.4,35.2,29.86,West,264,1.0,15.0,88,0.00,,---,0.00,VWS V13.01,2013-04-11 13:33:00,
2013-04-11 08:38:00,38.4,35.2,29.86,West,265,9.0,9.0,88,0.00,,---,0.00,VWS V13.01,2013-04-11 13:38:00,
2013-04-11 08:43:00,38.5,35.3,29.87,North,360,1.0,9.0,88,0.00,,---,0.00,VWS V13.01,2013-04-11 13:43:00,
2013-04-11 08:48:00,38.5,35.3,29.86,NNW,329,0.0,13.0,88,0.00,,---,0.00,VWS V13.01,2013-04-11 13:48:00,
2013-04-11 08:54:00,38.4,34.9,29.84,NNW,333,0.0,13.0,87,0.00,,---,0.00,VWS V13.01,2013-04-11 13:54:00,
2013-04-11 08:59:00,38.4,34.9,29.84,North,350,2.0,13.0,87,0.00,,---,0.00,VWS V13.01,2013-04-11 13:59:00,
2013-04-11 09:04:00,38.4,34.9,29.84,NNW,345,0.0,13.0,87,0.00,,---,0.00,VWS V13.01,2013-04-11 14:04:00,
2013-04-11 09:09:00,38.5,35.0,29.84,NW,305,0.0,11.0,87,0.00,,---,0.00,VWS V13.01,2013-04-11 14:09:00,
2013-04-11 09:14:00,38.6,35.1,29.83,NNW,333,1.0,11.0,87,0.00,,---,0.00,VWS V13.01,2013-04-11 14:14:00,
2013-04-11 09:20:00,38.6,35.1,29.84,NW,317,3.0,11.0,87,0.00,,---,0.00,VWS V13.01,2013-04-11 14:20:00,
2013-04-11 09:25:00,38.8,35.3,29.85,WNW,300,7.0,11.0,87,0.00,,---,0.00,VWS V13.01,2013-04-11 14:25:00,
2013-04-11 09:30:00,38.7,35.2,29.85,NNW,329,3.0,13.0,87,0.00,,---,0.00,VWS V13.01,2013-04-11 14:30:00,
2013-04-11 09:35:00,38.6,35.1,29.86,WNW,302,3.0,13.0,87,0.00,,---,0.00,VWS V13.01,2013-04-11 14:35:00,
2013-04-11 09:40:00,38.6,34.8,29.86,NW,325,5.0,15.0,86,0.00,,---,0.00,VWS V13.01,2013-04-11 14:40:00,
2013-04-11 09:45:00,38.7,35.2,29.84,NNW,344,3.0,15.0,87,0.00,,---,0.00,VWS V13.01,2013-04-11 14:45:00,
2013-04-11 09:50:00,38.9,35.4,29.84,NW,310,1.0,15.0,87,0.00,,---,0.00,VWS V13.01,2013-04-11 14:50:00,
2013-04-11 09:55:00,38.9,35.1,29.85,WNW,303,2.0,15.0,86,0.00,,---,0.00,VWS V13.01,2013-04-11 14:55:00,
2013-04-11 10:00:00,38.9,35.1,29.85,NW,323,3.0,17.0,86,0.00,,---,0.00,VWS V13.01,2013-04-11 15:00:00,
2013-04-11 10:05:00,39.0,35.2,29.85,NW,322,0.0,17.0,86,0.00,,---,0.00,VWS V13.01,2013-04-11 15:05:00,
2013-04-11 10:10:00,39.3,35.5,29.85,NW,325,4.0,13.0,86,0.00,,---,0.00,VWS V13.01,2013-04-11 15:10:00,
2013-04-11 10:15:00,39.5,35.4,29.85,NW,304,0.0,13.0,85,0.00,,---,0.00,VWS V13.01,2013-04-11 15:15:00,
2013-04-11 10:20:00,39.8,35.7,29.84,WNW,302,0.0,13.0,85,0.00,,---,0.00,VWS V13.01,2013-04-11 15:20:00,
2013-04-11 10:25:00,40.2,35.8,29.86,North,360,2.0,13.0,84,0.00,,---,0.00,VWS V13.01,2013-04-11 15:25:00,
2013-04-11 10:30:00,40.0,35.6,29.86,West,279,2.0,13.0,84,0.00,,---,0.00,VWS V13.01,2013-04-11 15:30:00,
2013-04-11 10:35:00,39.9,35.5,29.86,WNW,298,11.0,13.0,84,0.00,,---,0.00,VWS V13.01,2013-04-11 15:35:00,
2013-04-11 10:40:00,39.8,35.1,29.86,NW,323,2.0,9.0,83,0.00,,---,0.00,VWS V13.01,2013-04-11 15:40:00,
2013-04-11 10:45:00,40.0,35.3,29.86,NW,313,3.0,9.0,83,0.00,,---,0.00,VWS V13.01,2013-04-11 15:45:00,
2013-04-11 10:50:00,40.3,35.9,29.87,WNW,296,9.0,10.0,84,0.00,,---,0.00,VWS V13.01,2013-04-11 15:50:00,
2013-04-11 10:56:00,40.5,36.0,29.87,NW,325,2.0,10.0,84,0.00,,---,0.00,VWS V13.01,2013-04-11 15:56:00,
2013-04-11 11:01:00,40.7,36.2,29.88,WNW,284,1.0,10.0,84,0.00,,---,0.00,VWS V13.01,2013-04-11 16:01:00,
2013-04-11 11:06:00,40.9,36.1,29.87,NW,304,0.0,12.0,83,0.00,,---,0.00,VWS V13.01,2013-04-11 16:06:00,
2013-04-11 11:11:00,41.1,36.0,29.86,WNW,295,4.0,14.0,82,0.00,,---,0.00,VWS V13.01,2013-04-11 16:11:00,
2013-04-11 11:16:00,41.4,36.6,29.86,SW,233,2.0,14.0,83,0.00,,---,0.00,VWS V13.01,2013-04-11 16:16:00,
2013-04-11 11:21:00,41.5,36.4,29.86,NW,317,4.0,14.0,82,0.00,,---,0.00,VWS V13.01,2013-04-11 16:21:00,
2013-04-11 11:27:00,41.4,36.0,29.86,NNW,330,3.0,14.0,81,0.00,,---,0.00,VWS V13.01,2013-04-11 16:27:00,
2013-04-11 11:32:00,41.5,36.1,29.85,West,264,1.0,14.0,81,0.00,,---,0.00,VWS V13.01,2013-04-11 16:32:00,
2013-04-11 11:37:00,41.8,36.4,29.86,NNW,339,2.0,14.0,81,0.00,,---,0.00,VWS V13.01,2013-04-11 16:37:00,
2013-04-11 11:42:00,41.9,36.5,29.86,NW,318,4.0,14.0,81,0.00,,---,0.00,VWS V13.01,2013-04-11 16:42:00,
2013-04-11 11:47:00,42.2,36.8,29.86,WNW,295,3.0,14.0,81,0.00,,---,0.00,VWS V13.01,2013-04-11 16:47:00,
2013-04-11 11:52:00,42.0,36.6,29.87,NNW,336,3.0,14.0,81,0.00,,---,0.00,VWS V13.01,2013-04-11 16:52:00,
2013-04-11 11:57:00,42.0,36.6,29.86,WNW,289,3.0,14.0,81,0.00,,---,0.00,VWS V13.01,2013-04-11 16:57:00,
2013-04-11 12:03:00,42.4,37.0,29.86,West,273,0.0,14.0,81,0.00,,---,0.00,VWS V13.01,2013-04-11 17:03:00,
2013-04-11 12:08:00,43.4,38.3,29.85,NW,321,1.0,11.0,82,0.00,,---,0.00,VWS V13.01,2013-04-11 17:08:00,
2013-04-11 12:13:00,44.1,38.0,29.84,NNW,334,2.0,14.0,79,0.00,,---,0.00,VWS V13.01,2013-04-11 17:13:00,
2013-04-11 12:18:00,44.3,37.6,29.84,NW,322,3.0,14.0,77,0.00,,---,0.00,VWS V13.01,2013-04-11 17:18:00,
2013-04-11 12:23:00,44.6,37.5,29.84,NNW,346,4.0,14.0,76,0.00,,---,0.00,VWS V13.01,2013-04-11 17:23:00,
2013-04-11 12:28:00,44.3,37.6,29.85,WNW,290,3.0,14.0,77,0.00,,---,0.00,VWS V13.01,2013-04-11 17:28:00,
2013-04-11 12:33:00,45.0,38.6,29.85,WNW,284,8.0,14.0,78,0.00,,---,0.00,VWS V13.01,2013-04-11 17:33:00,
2013-04-11 12:38:00,45.4,39.0,29.85,West,275,2.0,9.0,78,0.00,,---,0.00,VWS V13.01,2013-04-11 17:38:00,
2013-04-11 12:43:00,45.3,38.5,29.84,WNW,290,7.0,9.0,77,0.00,,---,0.00,VWS V13.01,2013-04-11 17:43:00,
2013-04-11 12:48:00,46.1,39.0,29.84,NNW,330,9.0,14.0,76,0.00,,---,0.00,VWS V13.01,2013-04-11 17:48:00,
2013-04-11 12:53:00,46.0,38.2,29.84,NW,306,8.0,14.0,74,0.00,,---,0.00,VWS V13.01,2013-04-11 17:53:00,
2013-04-11 12:58:00,45.6,38.2,29.83,NNW,348,2.0,14.0,75,0.00,,---,0.00,VWS V13.01,2013-04-11 17:58:00,
2013-04-11 13:03:00,46.4,39.3,29.82,WNW,298,3.0,14.0,76,0.00,,---,0.00,VWS V13.01,2013-04-11 18:03:00,
2013-04-11 13:08:00,47.2,39.0,29.82,NNW,336,1.0,16.0,73,0.00,,---,0.00,VWS V13.01,2013-04-11 18:08:00,
2013-04-11 13:13:00,46.8,39.0,29.81,West,275,0.0,16.0,74,0.00,,---,0.00,VWS V13.01,2013-04-11 18:13:00,
2013-04-11 13:18:00,47.8,39.9,29.82,NNW,330,1.0,16.0,74,0.00,,---,0.00,VWS V13.01,2013-04-11 18:18:00,
2013-04-11 13:23:00,47.7,39.5,29.82,West,267,2.0,16.0,73,0.00,,---,0.00,VWS V13.01,2013-04-11 18:23:00,
2013-04-11 13:28:00,48.1,39.5,29.82,WNW,302,2.0,16.0,72,0.00,,---,0.00,VWS V13.01,2013-04-11 18:28:00,
2013-04-11 13:34:00,47.5,38.9,29.82,NW,325,0.0,16.0,72,0.00,,---,0.00,VWS V13.01,2013-04-11 18:34:00,
2013-04-11 13:39:00,47.7,39.8,29.81,NNW,330,2.0,9.0,74,0.00,,---,0.00,VWS V13.01,2013-04-11 18:39:00,
2013-04-11 13:44:00,49.1,40.8,29.81,NW,304,3.0,18.0,73,0.00,,---,0.00,VWS V13.01,2013-04-11 18:44:00,
2013-04-11 13:49:00,49.4,40.0,29.81,West,281,6.0,18.0,70,0.00,,---,0.00,VWS V13.01,2013-04-11 18:49:00,
2013-04-11 13:54:00,50.0,40.6,29.82,West,275,4.0,18.0,70,0.00,,---,0.00,VWS V13.01,2013-04-11 18:54:00,
2013-04-11 13:59:00,50.2,40.4,29.82,NNW,336,6.0,18.0,69,0.00,,---,0.00,VWS V13.01,2013-04-11 18:59:00,
2013-04-11 14:04:00,50.8,41.4,29.81,SE,146,3.0,18.0,70,0.00,,---,0.00,VWS V13.01,2013-04-11 19:04:00,
2013-04-11 14:09:00,50.5,40.7,29.81,WSW,256,3.0,10.0,69,0.00,,---,0.00,VWS V13.01,2013-04-11 19:09:00,
2013-04-11 14:14:00,51.0,41.2,29.81,NW,310,1.0,11.0,69,0.00,,---,0.00,VWS V13.01,2013-04-11 19:14:00,
2013-04-11 14:19:00,51.0,40.8,29.81,NW,311,0.0,12.0,68,0.00,,---,0.00,VWS V13.01,2013-04-11 19:19:00,
2013-04-11 14:24:00,51.5,41.3,29.81,SW,218,4.0,12.0,68,0.00,,---,0.00,VWS V13.01,2013-04-11 19:24:00,
2013-04-11 14:29:00,52.4,42.2,29.80,NW,309,3.0,12.0,68,0.00,,---,0.00,VWS V13.01,2013-04-11 19:29:00,
2013-04-11 14:34:00,51.6,40.2,29.80,WNW,284,1.0,12.0,65,0.00,,---,0.00,VWS V13.01,2013-04-11 19:34:00,
2013-04-11 14:39:00,53.2,43.3,29.80,NW,322,2.0,5.0,69,0.00,,---,0.00,VWS V13.01,2013-04-11 19:39:00,
2013-04-11 14:44:00,53.8,42.3,29.80,West,279,0.0,7.0,65,0.00,,---,0.00,VWS V13.01,2013-04-11 19:44:00,
2013-04-11 14:50:00,53.7,42.6,29.79,WNW,301,2.0,9.0,66,0.00,,---,0.00,VWS V13.01,2013-04-11 19:50:00,
2013-04-11 14:55:00,53.3,41.8,29.79,NW,311,3.0,10.0,65,0.00,,---,0.00,VWS V13.01,2013-04-11 19:55:00,
2013-04-11 15:00:00,53.2,41.3,29.78,WNW,290,0.0,10.0,64,0.00,,---,0.00,VWS V13.01,2013-04-11 20:00:00,
2013-04-11 15:05:00,53.8,40.7,29.78,WNW,292,11.0,11.0,61,0.00,,---,0.00,VWS V13.01,2013-04-11 20:05:00,
2013-04-11 15:10:00,53.8,41.1,29.78,NNW,344,5.0,13.0,62,0.00,,---,0.00,VWS V13.01,2013-04-11 20:10:00,
2013-04-11 15:15:00,54.1,42.2,29.78,West,281,4.0,13.0,64,0.00,,---,0.00,VWS V13.01,2013-04-11 20:15:00,
2013-04-11 15:20:00,53.9,41.2,29.78,NNW,338,0.0,13.0,62,0.00,,---,0.00,VWS V13.01,2013-04-11 20:20:00,
2013-04-11 15:25:00,54.4,40.8,29.78,WNW,292,0.0,13.0,60,0.00,,---,0.00,VWS V13.01,2013-04-11 20:25:00,
2013-04-11 15:30:00,54.2,41.5,29.77,NW,306,0.0,17.0,62,0.00,,---,0.00,VWS V13.01,2013-04-11 20:30:00,
2013-04-11 15:35:00,55.4,40.9,29.77,NNW,344,0.0,17.0,58,0.00,,---,0.00,VWS V13.01,2013-04-11 20:35:00,
2013-04-11 15:40:00,55.4,40.9,29.77,NNE,14,2.0,12.0,58,0.00,,---,0.00,VWS V13.01,2013-04-11 20:40:00,
2013-04-11 15:45:00,55.4,41.3,29.76,North,9,3.0,13.0,59,0.00,,---,0.00,VWS V13.01,2013-04-11 20:45:00,
2013-04-11 15:50:00,55.2,40.2,29.76,NW,321,0.0,13.0,57,0.00,,---,0.00,VWS V13.01,2013-04-11 20:50:00,
2013-04-11 15:55:00,55.7,40.7,29.76,WNW,303,1.0,13.0,57,0.00,,---,0.00,VWS V13.01,2013-04-11 20:55:00,
2013-04-11 16:01:00,55.9,41.8,29.76,NW,304,5.0,13.0,59,0.00,,---,0.00,VWS V13.01,2013-04-11 21:01:00,
2013-04-11 16:06:00,55.8,41.3,29.76,West,269,0.0,13.0,58,0.00,,---,0.00,VWS V13.01,2013-04-11 21:06:00,
2013-04-11 16:11:00,55.8,40.8,29.76,WSW,247,3.0,10.0,57,0.00,,---,0.00,VWS V13.01,2013-04-11 21:11:00,
2013-04-11 16:16:00,55.5,40.5,29.76,NW,308,0.0,12.0,57,0.00,,---,0.00,VWS V13.01,2013-04-11 21:16:00,
2013-04-11 16:21:00,55.6,42.0,29.75,WNW,298,2.0,12.0,60,0.00,,---,0.00,VWS V13.01,2013-04-11 21:21:00,
2013-04-11 16:26:00,55.3,40.3,29.75,WNW,287,0.0,13.0,57,0.00,,---,0.00,VWS V13.01,2013-04-11 21:26:00,
2013-04-11 16:31:00,55.7,42.0,29.75,WNW,291,3.0,13.0,60,0.00,,---,0.00,VWS V13.01,2013-04-11 21:31:00,
2013-04-11 16:37:00,55.7,40.7,29.74,NW,305,4.0,12.0,57,0.00,,---,0.00,VWS V13.01,2013-04-11 21:37:00,
2013-04-11 16:42:00,55.8,41.3,29.74,West,269,0.0,15.0,58,0.00,,---,0.00,VWS V13.01,2013-04-11 21:42:00,
2013-04-11 16:47:00,56.2,41.6,29.74,NNW,329,0.0,15.0,58,0.00,,---,0.00,VWS V13.01,2013-04-11 21:47:00,
2013-04-11 16:52:00,56.0,41.0,29.74,WSW,250,0.0,15.0,57,0.00,,---,0.00,VWS V13.01,2013-04-11 21:52:00,
2013-04-11 16:57:00,55.9,40.9,29.73,WSW,238,0.0,19.0,57,0.00,,---,0.00,VWS V13.01,2013-04-11 21:57:00,
2013-04-11 17:03:00,55.7,39.8,29.73,WNW,294,1.0,19.0,55,0.00,,---,0.00,VWS V13.01,2013-04-11 22:03:00,
2013-04-11 17:08:00,55.4,40.4,29.73,NNW,332,5.0,13.0,57,0.00,,---,0.00,VWS V13.01,2013-04-11 22:08:00,
2013-04-11 17:13:00,55.1,39.7,29.73,NW,305,4.0,13.0,56,0.00,,---,0.00,VWS V13.01,2013-04-11 22:13:00,
2013-04-11 17:18:00,55.3,40.3,29.73,NNW,331,0.0,13.0,57,0.00,,---,0.00,VWS V13.01,2013-04-11 22:18:00,
2013-04-11 17:23:00,55.4,40.4,29.73,WSW,238,2.0,13.0,57,0.00,,---,0.00,VWS V13.01,2013-04-11 22:23:00,
2013-04-11 17:28:00,55.4,40.4,29.73,West,270,0.0,13.0,57,0.00,,---,0.00,VWS V13.01,2013-04-11 22:28:00,
2013-04-11 17:33:00,55.3,39.9,29.73,NW,305,10.0,13.0,56,0.00,,---,0.00,VWS V13.01,2013-04-11 22:33:00,
2013-04-11 17:38:00,55.2,40.2,29.74,SW,236,0.0,9.0,57,0.00,,---,0.00,VWS V13.01,2013-04-11 22:38:00,
2013-04-11 17:43:00,55.3,39.9,29.74,NNW,336,0.0,11.0,56,0.00,,---,0.00,VWS V13.01,2013-04-11 22:43:00,
2013-04-11 17:48:00,55.2,40.2,29.74,West,269,10.0,11.0,57,0.00,,---,0.00,VWS V13.01,2013-04-11 22:48:00,
2013-04-11 17:53:00,55.2,40.7,29.74,NNW,331,0.0,11.0,58,0.00,,---,0.00,VWS V13.01,2013-04-11 22:53:00,
2013-04-11 17:58:00,55.0,39.2,29.74,WNW,300,0.0,13.0,55,0.00,,---,0.00,VWS V13.01,2013-04-11 22:58:00,
2013-04-11 18:03:00,54.7,39.3,29.74,NW,315,1.0,13.0,56,0.00,,---,0.00,VWS V13.01,2013-04-11 23:03:00,
2013-04-11 18:08:00,54.4,39.0,29.74,NW,306,0.0,9.0,56,0.00,,---,0.00,VWS V13.01,2013-04-11 23:08:00,
2013-04-11 18:13:00,54.3,39.4,29.75,West,280,0.0,10.0,57,0.00,,---,0.00,VWS V13.01,2013-04-11 23:13:00,
2013-04-11 18:18:00,54.2,38.9,29.75,SW,221,0.0,10.0,56,0.00,,---,0.00,VWS V13.01,2013-04-11 23:18:00,
2013-04-11 18:24:00,54.1,39.2,29.75,NW,309,0.0,10.0,57,0.00,,---,0.00,VWS V13.01,2013-04-11 23:24:00,
2013-04-11 18:29:00,53.9,39.5,29.75,SSW,208,3.0,10.0,58,0.00,,---,0.00,VWS V13.01,2013-04-11 23:29:00,
2013-04-11 18:34:00,53.8,38.5,29.75,WNW,300,1.0,10.0,56,0.00,,---,0.00,VWS V13.01,2013-04-11 23:34:00,
2013-04-11 18:39:00,53.7,39.3,29.76,WNW,296,0.0,5.0,58,0.00,,---,0.00,VWS V13.01,2013-04-11 23:39:00,
2013-04-11 18:44:00,53.5,39.1,29.76,NNW,332,0.0,11.0,58,0.00,,---,0.00,VWS V13.01,2013-04-11 23:44:00,
2013-04-11 18:49:00,53.3,38.9,29.76,West,277,2.0,11.0,58,0.00,,---,0.00,VWS V13.01,2013-04-11 23:49:00,
2013-04-11 18:54:00,53.1,38.7,29.76,SW,219,0.0,11.0,58,0.00,,---,0.00,VWS V13.01,2013-04-11 23:54:00,
2013-04-11 18:59:00,52.8,38.5,29.76,WNW,283,0.0,11.0,58,0.00,,---,0.00,VWS V13.01,2013-04-11 23:59:00,
2013-04-11 19:04:00,52.7,39.2,29.77,NW,319,0.0,13.0,60,0.00,,---,0.00,VWS V13.01,2013-04-12 00:04:00,
2013-04-11 19:09:00,52.4,38.9,29.77,West,271,0.0,11.0,60,0.00,,---,0.00,VWS V13.01,2013-04-12 00:09:00,
2013-04-11 19:14:00,52.3,38.0,29.77,West,261,5.0,16.0,58,0.00,,---,0.00,VWS V13.01,2013-04-12 00:14:00,
2013-04-11 19:19:00,52.1,37.8,29.77,SSW,209,0.0,16.0,58,0.00,,---,0.00,VWS V13.01,2013-04-12 00:19:00,
2013-04-11 19:25:00,51.9,37.6,29.78,WSW,253,0.0,16.0,58,0.00,,---,0.00,VWS V13.01,2013-04-12 00:25:00,
2013-04-11 19:30:00,51.7,37.8,29.78,NNW,331,0.0,16.0,59,0.00,,---,0.00,VWS V13.01,2013-04-12 00:30:00,
2013-04-11 19:35:00,51.4,38.4,29.78,WNW,283,3.0,16.0,61,0.00,,---,0.00,VWS V13.01,2013-04-12 00:35:00,
2013-04-11 19:40:00,51.2,37.8,29.78,NW,318,0.0,5.0,60,0.00,,---,0.00,VWS V13.01,2013-04-12 00:40:00,
2013-04-11 19:45:00,50.9,38.0,29.79,West,270,0.0,5.0,61,0.00,,---,0.00,VWS V13.01,2013-04-12 00:45:00,
2013-04-11 19:50:00,50.7,37.8,29.79,WSW,246,1.0,8.0,61,0.00,,---,0.00,VWS V13.01,2013-04-12 00:50:00,
2013-04-11 19:55:00,50.6,37.7,29.79,WNW,285,0.0,9.0,61,0.00,,---,0.00,VWS V13.01,2013-04-12 00:55:00,
2013-04-11 20:00:00,50.5,37.6,29.79,NW,319,1.0,9.0,61,0.00,,---,0.00,VWS V13.01,2013-04-12 01:00:00,
2013-04-11 20:05:00,50.3,37.8,29.79,West,271,0.0,9.0,62,0.00,,---,0.00,VWS V13.01,2013-04-12 01:05:00,
2013-04-11 20:10:00,50.0,37.9,29.79,WSW,247,0.0,5.0,63,0.00,,---,0.00,VWS V13.01,2013-04-12 01:10:00,
2013-04-11 20:15:00,49.7,38.0,29.79,WNW,286,0.0,10.0,64,0.00,,---,0.00,VWS V13.01,2013-04-12 01:15:00,
2013-04-11 20:20:00,49.4,37.8,29.80,West,260,0.0,10.0,64,0.00,,---,0.00,VWS V13.01,2013-04-12 01:20:00,
2013-04-11 20:25:00,49.4,37.8,29.80,WNW,284,4.0,10.0,64,0.00,,---,0.00,VWS V13.01,2013-04-12 01:25:00,
2013-04-11 20:30:00,49.2,37.6,29.80,NW,310,0.0,10.0,64,0.00,,---,0.00,VWS V13.01,2013-04-12 01:30:00,
2013-04-11 20:35:00,49.1,37.9,29.80,WNW,299,0.0,10.0,65,0.00,,---,0.00,VWS V13.01,2013-04-12 01:35:00,
2013-04-11 20:40:00,49.0,37.8,29.80,NW,319,0.0,3.0,65,0.00,,---,0.00,VWS V13.01,2013-04-12 01:40:00,
2013-04-11 20:45:00,49.1,37.9,29.81,WSW,256,0.0,7.0,65,0.00,,---,0.00,VWS V13.01,2013-04-12 01:45:00,
2013-04-11 20:50:00,49.0,38.2,29.81,SW,219,0.0,7.0,66,0.00,,---,0.00,VWS V13.01,2013-04-12 01:50:00,
2013-04-11 20:55:00,48.8,38.0,29.81,NW,324,0.0,7.0,66,0.00,,---,0.00,VWS V13.01,2013-04-12 01:55:00,
2013-04-11 21:00:00,48.7,37.9,29.82,WNW,286,0.0,7.0,66,0.00,,---,0.00,VWS V13.01,2013-04-12 02:00:00,
2013-04-11 21:05:00,48.6,37.8,29.82,WNW,282,0.0,7.0,66,0.00,,---,0.00,VWS V13.01,2013-04-12 02:05:00,
2013-04-11 21:10:00,48.5,37.7,29.82,West,279,0.0,7.0,66,0.00,,---,0.00,VWS V13.01,2013-04-12 02:10:00,
2013-04-11 21:15:00,48.3,37.5,29.82,WSW,254,0.0,7.0,66,0.00,,---,0.00,VWS V13.01,2013-04-12 02:15:00,
2013-04-11 21:21:00,48.2,37.4,29.82,NW,306,0.0,7.0,66,0.00,,---,0.00,VWS V13.01,2013-04-12 02:21:00,
2013-04-11 21:25:00,48.1,37.3,29.82,West,276,0.0,7.0,66,0.00,,---,0.00,VWS V13.01,2013-04-12 02:25:00,
2013-04-11 21:31:00,48.1,37.7,29.82,NW,312,0.0,7.0,67,0.00,,---,0.00,VWS V13.01,2013-04-12 02:31:00,
2013-04-11 21:36:00,47.9,37.9,29.82,NNW,332,1.0,7.0,68,0.00,,---,0.00,VWS V13.01,2013-04-12 02:36:00,
2013-04-11 21:41:00,47.8,37.4,29.83,SW,225,0.0,6.0,67,0.00,,---,0.00,VWS V13.01,2013-04-12 02:41:00,
2013-04-11 21:46:00,47.7,37.7,29.83,NW,319,0.0,6.0,68,0.00,,---,0.00,VWS V13.01,2013-04-12 02:46:00,
2013-04-11 21:51:00,47.6,38.0,29.83,WNW,292,0.0,6.0,69,0.00,,---,0.00,VWS V13.01,2013-04-12 02:51:00,
2013-04-11 21:56:00,47.5,37.8,29.84,WSW,256,0.0,11.0,69,0.00,,---,0.00,VWS V13.01,2013-04-12 02:56:00,
2013-04-11 22:01:00,47.4,37.4,29.84,NW,311,0.0,11.0,68,0.00,,---,0.00,VWS V13.01,2013-04-12 03:01:00,
2013-04-11 22:06:00,47.3,37.7,29.84,NW,310,0.0,0.0,69,0.00,,---,0.00,VWS V13.01,2013-04-12 03:06:00,
2013-04-11 22:11:00,47.3,37.7,29.84,West,262,0.0,5.0,69,0.00,,---,0.00,VWS V13.01,2013-04-12 03:11:00,
2013-04-11 22:16:00,47.3,37.7,29.84,NNW,330,0.0,5.0,69,0.00,,---,0.00,VWS V13.01,2013-04-12 03:16:00,
2013-04-11 22:21:00,47.1,37.5,29.85,WNW,298,3.0,5.0,69,0.00,,---,0.00,VWS V13.01,2013-04-12 03:21:00,
2013-04-11 22:26:00,47.0,37.4,29.85,NW,326,3.0,5.0,69,0.00,,---,0.00,VWS V13.01,2013-04-12 03:26:00,
2013-04-11 22:32:00,46.9,37.3,29.85,WNW,302,5.0,7.0,69,0.00,,---,0.00,VWS V13.01,2013-04-12 03:32:00,
2013-04-11 22:37:00,46.9,37.3,29.85,WNW,301,0.0,0.0,69,0.00,,---,0.00,VWS V13.01,2013-04-12 03:37:00,
2013-04-11 22:42:00,46.9,37.3,29.85,NW,323,0.0,6.0,69,0.00,,---,0.00,VWS V13.01,2013-04-12 03:42:00,
2013-04-11 22:47:00,46.8,37.2,29.86,NW,309,0.0,6.0,69,0.00,,---,0.00,VWS V13.01,2013-04-12 03:47:00,
2013-04-11 22:52:00,46.6,37.3,29.86,NW,319,0.0,6.0,70,0.00,,---,0.00,VWS V13.01,2013-04-12 03:52:00,
2013-04-11 22:58:00,46.4,37.2,29.86,NW,319,0.0,6.0,70,0.00,,---,0.00,VWS V13.01,2013-04-12 03:58:00,
2013-04-11 23:00:00,46.2,37.3,29.86,NW,307,1.0,6.0,71,0.00,,---,0.00,VWS V13.01,2013-04-12 04:00:00,
2013-04-11 23:01:00,46.2,37.3,29.86,West,277,0.0,6.0,71,0.00,,---,0.00,VWS V13.01,2013-04-12 04:01:00,
2013-04-11 23:06:00,45.9,37.0,29.86,West,279,0.0,6.0,71,0.00,,---,0.00,VWS V13.01,2013-04-12 04:06:00,
2013-04-11 23:11:00,45.6,37.1,29.85,WNW,299,0.0,2.0,72,0.00,,---,0.00,VWS V13.01,2013-04-12 04:11:00,
2013-04-11 23:16:00,45.5,37.0,29.86,NW,307,0.0,2.0,72,0.00,,---,0.00,VWS V13.01,2013-04-12 04:16:00,
2013-04-11 23:21:00,45.3,36.8,29.85,NW,307,0.0,2.0,72,0.00,,---,0.00,VWS V13.01,2013-04-12 04:21:00,
2013-04-11 23:27:00,45.0,36.9,29.85,NW,309,0.0,2.0,73,0.00,,---,0.00,VWS V13.01,2013-04-12 04:27:00,
2013-04-11 23:32:00,44.8,37.0,29.85,NW,309,0.0,2.0,74,0.00,,---,0.00,VWS V13.01,2013-04-12 04:32:00,
2013-04-11 23:37:00,44.7,36.9,29.85,NW,309,0.0,0.0,74,0.00,,---,0.00,VWS V13.01,2013-04-12 04:37:00,
2013-04-11 23:42:00,44.6,37.2,29.85,NW,309,0.0,0.0,75,0.00,,---,0.00,VWS V13.01,2013-04-12 04:42:00,
2013-04-11 23:47:00,44.5,37.1,29.85,NW,313,0.0,0.0,75,0.00,,---,0.00,VWS V13.01,2013-04-12 04:47:00,
2013-04-11 23:52:00,44.6,37.2,29.85,NW,315,0.0,3.0,75,0.00,,---,0.00,VWS V13.01,2013-04-12 04:52:00,
2013-04-11 23:57:00,44.6,37.2,29.84,NW,319,0.0,3.0,75,0.00,,---,0.00,VWS V13.01,2013-04-12 04:57:00,